Fort Sill, OK

10:47 PM CST on January 22, 2018 (GMT -0600)
Post Army Air Field

Weather History for KFSI - July, 2013

Change the Weather History Date:

Sunday, July 14, 2013

  Actual Average Record
Temperature  
Mean Temperature 74 °F -  
Max Temperature 84 °F 95 °F 107 °F (1954)
Min Temperature 64 °F 70 °F 57 °F (1982)
Cooling Degree Days 9    
Growing Degree Days 24 (Base 50)    
Moisture  
Dew Point 64 °F    
Average Humidity 88    
Maximum Humidity 100    
Minimum Humidity 50    
Precipitation  
Precipitation 0.13 in - - ()
Sea Level Pressure  
Sea Level Pressure 30.00 in    
Wind  
Wind Speed 7 mph (East)    
Max Wind Speed 15 mph    
Max Gust Speed -    
Visibility 8 miles    
Events Rain    
Averages and records for this station are not official NWS values.
T = Trace of Precipitation, MM = Missing Value Source: NWS Daily Summary

Daily Weather History Graph

Daily Weather History Graph

Search for Another Location

Airport or City:

Trip Planner

Search our weather history database for the weather conditions in past years. The results will help you decide how hot, cold, wet, or windy it might be!

Date:

Astronomy

Jul. 14, 2013 Rise Set
Actual Time 6:31 AM CDT 8:47 PM CDT
Civil Twilight 6:02 AM CDT 9:16 PM CDT
Nautical Twilight 5:27 AM CDT 9:51 PM CDT
Astronomical Twilight 4:48 AM CDT 10:29 PM CDT
Moon 12:31 PM CDT (7/14) No Moon Set
Length of Visible Light 15h 13m
Length of Day
14h 15m
Waxing Crescent, 35% of the Moon is Illuminated
Jul 14
Waxing Crescent
Jul 15
First Quarter
Jul 22
Full
Jul 29
Last Quarter
Aug 6
New

Hourly Weather History & Observations

Time (CDT) Temp. Heat Index Dew Point Humidity Pressure Visibility Wind Dir Wind Speed Gust Speed Precip Events Conditions
12:58 AM 84.2 °F 85.4 °F 63.5 °F 50% 29.88 in 10.0 mi SSE 9.2 mph - N/A   Clear
1:58 AM 81.9 °F 83.1 °F 63.3 °F 53% 29.88 in 10.0 mi SSE 10.4 mph - N/A   Clear
2:58 AM 80.6 °F 81.8 °F 62.6 °F 54% 29.87 in 10.0 mi SSE 10.4 mph - N/A   Mostly Cloudy
3:58 AM 80.4 °F 81.6 °F 62.6 °F 54% 29.88 in 10.0 mi ESE 9.2 mph - N/A   Overcast
5:58 AM 75.9 °F - 58.8 °F 55% 29.89 in 10.0 mi SE 15.0 mph - N/A   Overcast
1:58 PM 66.9 °F - 65.5 °F 95% 30.02 in 4.0 mi ESE 6.9 mph - 0.12 in Rain Light Rain
2:33 PM 66.2 °F - 64.4 °F 94% 30.03 in 2.5 mi South 6.9 mph - N/A Rain Rain
3:03 PM 66.2 °F - 64.4 °F 94% 30.03 in 4.0 mi SW 4.6 mph - N/A Rain Rain
3:08 PM 66.2 °F - 64.4 °F 94% 30.03 in 2.5 mi SW 5.8 mph - N/A Rain Rain
3:23 PM 66.2 °F - 64.4 °F 94% 30.02 in 3.0 mi WSW 6.9 mph - N/A Rain Rain
5:19 PM 64.4 °F - 64.4 °F 100% 29.92 in 10.0 mi West 12.7 mph - N/A Rain Light Rain
5:21 PM 66.2 °F - 64.4 °F 94% 29.93 in 10.0 mi West 10.4 mph - N/A Rain Light Rain
5:35 PM 64.4 °F - 64.4 °F 100% 29.93 in 10.0 mi WSW 9.2 mph - N/A   Scattered Clouds
6:10 PM 66.2 °F - 64.4 °F 94% 30.01 in 10.0 mi NNE 3.5 mph - N/A   Mostly Cloudy
6:20 PM 66.2 °F - 64.4 °F 94% 30.00 in 10.0 mi Variable 2.3 mph - N/A   Mostly Cloudy
7:31 PM 66.2 °F - 64.4 °F 94% 30.00 in 9.0 mi Calm Calm - N/A Rain Light Rain
7:36 PM 66.2 °F - 64.4 °F 94% 30.00 in 5.0 mi Calm Calm - N/A Rain Light Rain
7:41 PM 66.2 °F - 62.6 °F 88% 30.01 in 5.0 mi Calm Calm - N/A Rain Light Rain
7:56 PM 66.2 °F - 62.6 °F 88% 30.00 in 10.0 mi Calm Calm - N/A   Overcast
8:08 PM 66.2 °F - 62.6 °F 88% 30.01 in 10.0 mi Calm Calm - N/A   Light Drizzle
8:18 PM 66.2 °F - 62.6 °F 88% 30.01 in 10.0 mi North 3.5 mph - N/A   Overcast
9:19 PM 66.2 °F - 64.4 °F 94% 30.02 in 10.0 mi North 3.5 mph - N/A   Mostly Cloudy
9:24 PM 66.2 °F - 64.4 °F 94% 30.03 in 10.0 mi NNE 4.6 mph - N/A   Mostly Cloudy
9:58 PM 65.3 °F - 63.7 °F 94% 30.02 in 10.0 mi Variable 3.5 mph - N/A   Scattered Clouds
10:17 PM 66.2 °F - 64.4 °F 94% 30.06 in 10.0 mi NNE 5.8 mph - N/A   Light Drizzle
10:26 PM 66.2 °F - 64.4 °F 94% 30.05 in 10.0 mi NE 4.6 mph - N/A   Overcast
10:40 PM 66.2 °F - 64.4 °F 94% 30.07 in 10.0 mi NE 8.1 mph - N/A   Light Drizzle
10:50 PM 66.2 °F - 64.4 °F 94% 30.07 in 8.0 mi East 8.1 mph - N/A Rain Light Rain
10:58 PM 66.0 °F - 64.6 °F 95% 30.06 in 6.0 mi ESE 5.8 mph - 0.01 in Rain Light Rain
11:03 PM 66.2 °F - 64.4 °F 94% 30.07 in 9.0 mi East 6.9 mph - N/A Rain Light Rain
11:04 PM 66.2 °F - 64.4 °F 94% 30.07 in 9.0 mi ENE 5.8 mph - N/A Rain Light Rain
11:07 PM 66.2 °F - 64.4 °F 94% 30.06 in 10.0 mi ENE 12.7 mph - N/A   Overcast
11:12 PM 66.2 °F - 64.4 °F 94% 30.06 in 10.0 mi ENE 8.1 mph - N/A   Overcast